| time (UTC) | temp C | wind direction | speed KPH | gust KPH | rain 1hr cm | rain 24hr cm | rain mn cm | humidity % | barometer mb |
| 20260504192939 | 22 | 187 | 6.4 | 16.1 | 0.00 | 0.00 | 0.00 | 34 | 1007.6 |
| 20260504192440 | 22 | 212 | 6.4 | 17.7 | 0.00 | 0.00 | 0.00 | 37 | 1007.6 |
| 20260504191940 | 22 | 253 | 6.4 | 22.5 | 0.00 | 0.00 | 0.00 | 36 | 1007.7 |
| 20260504191439 | 22 | 210 | 6.4 | 22.5 | 0.00 | 0.00 | 0.00 | 36 | 1007.8 |
| 20260504190941 | 21 | 214 | 6.4 | 19.3 | 0.00 | 0.00 | 0.00 | 36 | 1007.8 |
| 20260504190445 | 21 | 151 | 8.0 | 30.6 | 0.00 | 0.00 | 0.00 | 37 | 1007.9 |
| 20260504190440 | 21 | 202 | 8.0 | 30.6 | 0.00 | 0.00 | 0.00 | 38 | 1007.9 |
| 20260504185437 | 21 | 161 | 8.0 | 25.7 | 0.00 | 0.00 | 0.00 | 37 | 1007.8 |
| 20260504184944 | 21 | 168 | 6.4 | 24.1 | 0.00 | 0.00 | 0.00 | 40 | 1008.0 |
| 20260504184937 | 21 | 210 | 8.0 | 17.7 | 0.00 | 0.00 | 0.00 | 37 | 1007.9 |
| 20260504183943 | 21 | 167 | 6.4 | 25.7 | 0.00 | 0.00 | 0.00 | 36 | 1008.2 |
| 20260504183936 | 21 | 217 | 6.4 | 24.1 | 0.00 | 0.00 | 0.00 | 36 | 1008.0 |
| 20260504183602 | 21 | 187 | 8.0 | 25.7 | 0.00 | 0.00 | 0.00 | 36 | 1008.1 |
| 20260504182435 | 21 | 224 | 9.7 | 25.7 | 0.00 | 0.00 | 0.00 | 39 | 1008.2 |
| 20260504181936 | 21 | 202 | 8.0 | 25.7 | 0.00 | 0.00 | 0.00 | 38 | 1008.2 |
| 20260504181435 | 21 | 218 | 8.0 | 20.9 | 0.00 | 0.00 | 0.00 | 36 | 1008.2 |
| 20260504180937 | 21 | 195 | 8.0 | 22.5 | 0.00 | 0.00 | 0.00 | 36 | 1008.2 |
| 20260504180433 | 20 | 220 | 8.0 | 22.5 | 0.00 | 0.00 | 0.00 | 37 | 1008.4 |
| 20260504175933 | 20 | 282 | 8.0 | 16.1 | 0.00 | 0.00 | 0.00 | 37 | 1008.5 |
| 20260504175434 | 20 | 254 | 9.7 | 20.9 | 0.00 | 0.00 | 0.00 | 41 | 1008.5 |
| 20260504174933 | 20 | 188 | 11.3 | 25.7 | 0.00 | 0.00 | 0.00 | 37 | 1008.6 |
| 20260504174439 | 20 | 278 | 9.7 | 24.1 | 0.00 | 0.00 | 0.00 | 36 | 1008.6 |
| 20260504174433 | 20 | 239 | 11.3 | 25.7 | 0.00 | 0.00 | 0.00 | 37 | 1008.7 |
| 20260504173434 | 20 | 222 | 8.0 | 24.1 | 0.00 | 0.00 | 0.00 | 36 | 1008.8 |
| 20260504172933 | 20 | 207 | 6.4 | 20.9 | 0.00 | 0.00 | 0.00 | 37 | 1009.0 |
| 20260504172434 | 20 | 212 | 6.4 | 19.3 | 0.00 | 0.00 | 0.00 | 36 | 1008.9 |
| 20260504171932 | 20 | 166 | 6.4 | 19.3 | 0.00 | 0.00 | 0.00 | 36 | 1009.0 |
| 20260504171432 | 20 | 198 | 6.4 | 19.3 | 0.00 | 0.00 | 0.00 | 39 | 1009.1 |
| 20260504170931 | 20 | 169 | 6.4 | 19.3 | 0.00 | 0.00 | 0.00 | 39 | 1008.9 |
| 20260504170434 | 20 | 228 | 8.0 | 29.0 | 0.00 | 0.00 | 0.00 | 36 | 1008.9 |
| 20260504160421 | 18 | 191 | 8.0 | 22.5 | 0.00 | 0.00 | 0.00 | 42 | 1009.7 |
| 20260504150917 | 18 | 165 | 8.0 | 32.2 | 0.00 | 0.00 | 0.00 | 41 | 1010.3 |
| 20260504150418 | 17 | 189 | 8.0 | 32.2 | 0.00 | 0.00 | 0.00 | 44 | 1010.5 |
| 20260504140911 | 16 | 203 | 8.0 | 20.9 | 0.00 | 0.00 | 0.00 | 44 | 1010.9 |
| 20260504140410 | 16 | 174 | 9.7 | 27.4 | 0.00 | 0.00 | 0.00 | 46 | 1011.1 |
| 20260504130408 | 12 | 238 | 4.8 | 17.7 | 0.00 | 0.00 | 0.00 | 55 | 1011.5 |
| 20260504110357 | 7 | 186 | 1.6 | 12.9 | 0.00 | 0.00 | 0.00 | 69 | 1011.9 |
| 20260504100353 | 3 | 206 | 0.0 | 3.2 | 0.00 | 0.00 | 0.00 | 83 | 1011.5 |
| 20260504081842 | 3 | 198 | 0.0 | 0.0 | 0.00 | 0.00 | 0.00 | 82 | 1011.1 |
| 20260504081342 | 3 | 198 | 0.0 | 0.0 | 0.00 | 0.00 | 0.00 | 82 | 1011.1 |
| 20260504080838 | 3 | 198 | 0.0 | 0.0 | 0.00 | 0.00 | 0.00 | 83 | 1011.1 |
| 20260504080340 | 3 | 198 | 0.0 | 0.0 | 0.00 | 0.00 | 0.00 | 82 | 1011.1 |
| 20260504070331 | 3 | 198 | 0.0 | 0.0 | 0.00 | 0.00 | 0.00 | 90 | 1011.0 |
| 20260504050317 | 1 | 198 | 0.0 | 0.0 | 0.00 | 0.00 | 0.00 | 89 | 1011.4 |
| 20260504045817 | 1 | 199 | 0.0 | 0.0 | 0.00 | 0.00 | 0.00 | 89 | 1011.3 |
| 20260504045314 | 1 | 198 | 0.0 | 0.0 | 0.00 | 0.00 | 0.00 | 89 | 1011.4 |
| 20260504044815 | 1 | 198 | 0.0 | 0.0 | 0.00 | 0.00 | 0.00 | 89 | 1011.4 |
| 20260504044316 | 1 | 199 | 0.0 | 0.0 | 0.00 | 0.00 | 0.00 | 89 | 1011.5 |
| 20260504043816 | 1 | 198 | 0.0 | 0.0 | 0.00 | 0.00 | 0.00 | 89 | 1011.4 |
| 20260504043316 | 1 | 199 | 0.0 | 0.0 | 0.00 | 0.00 | 0.00 | 89 | 1011.4 |
| 20260504042822 | 1 | 198 | 0.0 | 0.0 | 0.00 | 0.00 | 0.00 | 89 | 1011.4 |
| 20260504042816 | 1 | 199 | 0.0 | 0.0 | 0.00 | 0.00 | 0.00 | 89 | 1011.4 |
| 20260504041815 | 1 | 198 | 0.0 | 0.0 | 0.00 | 0.00 | 0.00 | 89 | 1011.4 |
| 20260504041318 | 1 | 198 | 0.0 | 0.0 | 0.00 | 0.00 | 0.00 | 88 | 1011.4 |
| 20260504041313 | 1 | 198 | 0.0 | 0.0 | 0.00 | 0.00 | 0.00 | 89 | 1011.4 |
| 20260504040314 | 1 | 198 | 0.0 | 0.0 | 0.00 | 0.00 | 0.00 | 88 | 1011.4 |
| 20260504035816 | 1 | 199 | 0.0 | 0.0 | 0.00 | 0.00 | 0.00 | 88 | 1011.3 |
| 20260504035321 | 1 | 198 | 0.0 | 0.0 | 0.00 | 0.00 | 0.00 | 88 | 1011.2 |
| 20260504035315 | 1 | 199 | 0.0 | 0.0 | 0.00 | 0.00 | 0.00 | 88 | 1011.3 |
| 20260504034313 | 1 | 198 | 0.0 | 0.0 | 0.00 | 0.00 | 0.00 | 87 | 1011.1 |
| 20260504033814 | 1 | 198 | 0.0 | 0.0 | 0.00 | 0.00 | 0.00 | 87 | 1011.2 |
| 20260504033809 | 1 | 199 | 0.0 | 0.0 | 0.00 | 0.00 | 0.00 | 87 | 1011.1 |
| 20260504032809 | 1 | 199 | 0.0 | 0.0 | 0.00 | 0.00 | 0.00 | 87 | 1011.2 |
| 20260504032310 | 1 | 198 | 0.0 | 0.0 | 0.00 | 0.00 | 0.00 | 86 | 1011.1 |
| 20260504031810 | 1 | 198 | 0.0 | 0.0 | 0.00 | 0.00 | 0.00 | 86 | 1011.0 |
| 20260504031310 | 1 | 198 | 0.0 | 0.0 | 0.00 | 0.00 | 0.00 | 85 | 1011.0 |
| 20260504030810 | 1 | 198 | 0.0 | 0.0 | 0.00 | 0.00 | 0.00 | 85 | 1011.0 |
| 20260504030311 | 1 | 198 | 0.0 | 0.0 | 0.00 | 0.00 | 0.00 | 85 | 1011.1 |
| 20260504025812 | 2 | 198 | 0.0 | 0.0 | 0.00 | 0.00 | 0.00 | 85 | 1011.0 |
| 20260504025807 | 1 | 199 | 0.0 | 0.0 | 0.00 | 0.00 | 0.00 | 84 | 1011.1 |
| 20260504024808 | 2 | 199 | 0.0 | 0.0 | 0.00 | 0.00 | 0.00 | 84 | 1011.0 |
| 20260504024307 | 2 | 198 | 0.0 | 0.0 | 0.00 | 0.00 | 0.00 | 84 | 1011.1 |
| 20260504023809 | 2 | 198 | 0.0 | 0.0 | 0.00 | 0.00 | 0.00 | 84 | 1011.0 |
| 20260504023308 | 2 | 198 | 0.0 | 0.0 | 0.00 | 0.00 | 0.00 | 83 | 1011.0 |
| 20260504022807 | 2 | 199 | 0.0 | 0.0 | 0.00 | 0.00 | 0.00 | 83 | 1010.9 |
| 20260504022308 | 2 | 199 | 0.0 | 0.0 | 0.00 | 0.00 | 0.00 | 82 | 1010.9 |
| 20260504021807 | 2 | 199 | 0.0 | 0.0 | 0.00 | 0.00 | 0.00 | 82 | 1010.8 |
| 20260504021305 | 2 | 199 | 0.0 | 0.0 | 0.00 | 0.00 | 0.00 | 81 | 1010.7 |
| 20260504020805 | 2 | 198 | 0.0 | 0.0 | 0.00 | 0.00 | 0.00 | 81 | 1010.8 |
| 20260504020304 | 2 | 198 | 0.0 | 0.0 | 0.00 | 0.00 | 0.00 | 80 | 1010.8 |
| 20260504015803 | 3 | 199 | 0.0 | 0.0 | 0.00 | 0.00 | 0.00 | 79 | 1010.8 |
| 20260504015304 | 3 | 199 | 0.0 | 0.0 | 0.00 | 0.00 | 0.00 | 79 | 1010.7 |
| 20260504014803 | 3 | 198 | 0.0 | 0.0 | 0.00 | 0.00 | 0.00 | 77 | 1010.7 |
| 20260504014312 | 3 | 198 | 0.0 | 0.0 | 0.00 | 0.00 | 0.00 | 77 | 1010.6 |
| 20260504014304 | 3 | 198 | 0.0 | 0.0 | 0.00 | 0.00 | 0.00 | 77 | 1010.6 |
| 20260504013309 | 3 | 198 | 0.0 | 0.0 | 0.00 | 0.00 | 0.00 | 75 | 1010.5 |
| 20260504013303 | 3 | 198 | 0.0 | 0.0 | 0.00 | 0.00 | 0.00 | 76 | 1010.5 |
| 20260504012304 | 4 | 198 | 0.0 | 0.0 | 0.00 | 0.00 | 0.00 | 75 | 1010.4 |
| 20260504011808 | 4 | 199 | 0.0 | 0.0 | 0.00 | 0.00 | 0.00 | 74 | 1010.4 |
| 20260504011803 | 4 | 199 | 0.0 | 0.0 | 0.00 | 0.00 | 0.00 | 75 | 1010.3 |
| 20260504010803 | 4 | 198 | 0.0 | 0.0 | 0.00 | 0.00 | 0.00 | 72 | 1010.3 |
| 20260504010301 | 5 | 199 | 0.0 | 0.0 | 0.00 | 0.00 | 0.00 | 71 | 1010.2 |
| 20260504005802 | 5 | 198 | 0.0 | 0.0 | 0.00 | 0.00 | 0.00 | 70 | 1010.0 |
| 20260504005304 | 5 | 199 | 0.0 | 0.0 | 0.00 | 0.00 | 0.00 | 69 | 1009.9 |
| 20260504004802 | 5 | 198 | 0.0 | 0.0 | 0.00 | 0.00 | 0.00 | 68 | 1009.9 |
| 20260504004302 | 6 | 199 | 0.0 | 0.0 | 0.00 | 0.00 | 0.00 | 66 | 1009.8 |
| 20260504003801 | 6 | 198 | 0.0 | 0.0 | 0.00 | 0.00 | 0.00 | 65 | 1009.8 |
| 20260504003306 | 6 | 199 | 0.0 | 0.0 | 0.00 | 0.00 | 0.00 | 63 | 1009.7 |
| 20260504003302 | 6 | 198 | 0.0 | 0.0 | 0.00 | 0.00 | 0.00 | 64 | 1009.7 |
| 20260504002259 | 7 | 198 | 0.0 | 0.0 | 0.00 | 0.00 | 0.00 | 61 | 1009.6 |
| 20260504001801 | 7 | 199 | 0.0 | 0.0 | 0.00 | 0.00 | 0.00 | 60 | 1009.5 |
| 20260504001300 | 7 | 199 | 0.0 | 0.0 | 0.00 | 0.00 | 0.00 | 59 | 1009.4 |
| 20260504000800 | 8 | 199 | 0.0 | 1.6 | 0.00 | 0.00 | 0.00 | 58 | 1009.3 |
| 20260504000300 | 8 | 199 | 0.0 | 1.6 | 0.00 | 0.00 | 0.00 | 56 | 1009.2 |
| 20260503235800 | 8 | 199 | 0.0 | 1.6 | 0.00 | 0.00 | 0.00 | 54 | 1009.1 |
| 20260503235304 | 9 | 199 | 0.0 | 1.6 | 0.00 | 0.00 | 0.00 | 53 | 1009.1 |
| 20260503234806 | 10 | 199 | 0.0 | 1.6 | 0.00 | 0.00 | 0.00 | 51 | 1009.1 |
| 20260503234801 | 9 | 199 | 0.0 | 1.6 | 0.00 | 0.00 | 0.00 | 52 | 1009.1 |
| 20260503233805 | 11 | 199 | 0.0 | 1.6 | 0.00 | 0.00 | 0.00 | 48 | 1009.0 |
| 20260503233759 | 10 | 199 | 0.0 | 1.6 | 0.00 | 0.00 | 0.00 | 48 | 1009.0 |
| 20260503232758 | 11 | 199 | 0.0 | 1.6 | 0.00 | 0.00 | 0.00 | 45 | 1008.9 |
| 20260503232258 | 11 | 199 | 0.0 | 3.2 | 0.00 | 0.00 | 0.00 | 43 | 1008.9 |
| 20260503231757 | 11 | 199 | 0.0 | 3.2 | 0.00 | 0.00 | 0.00 | 43 | 1008.8 |
| 20260503231258 | 11 | 250 | 0.0 | 4.8 | 0.00 | 0.00 | 0.00 | 41 | 1008.9 |
| 20260503230757 | 12 | 255 | 0.0 | 4.8 | 0.00 | 0.00 | 0.00 | 41 | 1008.8 |
| 20260503230258 | 12 | 274 | 0.0 | 4.8 | 0.00 | 0.00 | 0.00 | 39 | 1008.8 |
| 20260503225800 | 12 | 274 | 1.6 | 3.2 | 0.00 | 0.00 | 0.00 | 41 | 1008.9 |
| 20260503225258 | 12 | 276 | 1.6 | 11.3 | 0.00 | 0.00 | 0.00 | 42 | 1008.8 |
| 20260503224801 | 12 | 24 | 1.6 | 9.7 | 0.00 | 0.00 | 0.00 | 40 | 1008.8 |
| 20260503224757 | 12 | 284 | 3.2 | 11.3 | 0.00 | 0.00 | 0.00 | 39 | 1008.8 |
| 20260503223800 | 12 | 262 | 1.6 | 11.3 | 0.00 | 0.00 | 0.00 | 39 | 1008.7 |
| 20260503223756 | 12 | 346 | 1.6 | 9.7 | 0.00 | 0.00 | 0.00 | 38 | 1008.7 |
| 20260503222756 | 12 | 158 | 1.6 | 11.3 | 0.00 | 0.00 | 0.00 | 40 | 1008.7 |
| 20260503222301 | 12 | 231 | 3.2 | 11.3 | 0.00 | 0.00 | 0.00 | 39 | 1008.8 |
| 20260503222255 | 12 | 54 | 3.2 | 11.3 | 0.00 | 0.00 | 0.00 | 42 | 1008.8 |
| 20260503221303 | 12 | 15 | 1.6 | 11.3 | 0.00 | 0.00 | 0.00 | 40 | 1008.8 |
| 20260503221257 | 12 | 31 | 3.2 | 8.0 | 0.00 | 0.00 | 0.00 | 40 | 1008.8 |
| 20260503220257 | 12 | 264 | 3.2 | 11.3 | 0.00 | 0.00 | 0.00 | 44 | 1008.8 |
| 20260503215756 | 12 | 257 | 3.2 | 8.0 | 0.00 | 0.00 | 0.00 | 40 | 1008.7 |
| 20260503215256 | 12 | 22 | 3.2 | 12.9 | 0.00 | 0.00 | 0.00 | 41 | 1008.8 |
| 20260503214756 | 12 | 10 | 4.8 | 14.5 | 0.00 | 0.00 | 0.00 | 40 | 1008.8 |
| 20260503214304 | 12 | 250 | 4.8 | 16.1 | 0.00 | 0.00 | 0.00 | 43 | 1008.8 |
| 20260503214257 | 12 | 22 | 4.8 | 16.1 | 0.00 | 0.00 | 0.00 | 42 | 1008.8 |
| 20260503213256 | 12 | 253 | 4.8 | 16.1 | 0.00 | 0.00 | 0.00 | 40 | 1008.6 |
| 20260503212801 | 11 | 31 | 3.2 | 17.7 | 0.00 | 0.00 | 0.00 | 43 | 1008.7 |
| 20260503212756 | 12 | 236 | 3.2 | 14.5 | 0.00 | 0.00 | 0.00 | 43 | 1008.7 |
| 20260503212418 | 11 | 64 | 3.2 | 17.7 | 0.00 | 0.00 | 0.00 | 42 | 1008.7 |
| 20260503211256 | 11 | 237 | 3.2 | 12.9 | 0.00 | 0.00 | 0.00 | 44 | 1008.7 |
| 20260503210753 | 11 | 220 | 3.2 | 16.1 | 0.00 | 0.00 | 0.00 | 47 | 1008.7 |
| 20260503210253 | 11 | 186 | 4.8 | 16.1 | 0.00 | 0.00 | 0.00 | 44 | 1008.6 |
| 20260503205753 | 11 | 39 | 4.8 | 17.7 | 0.00 | 0.00 | 0.00 | 45 | 1008.6 |
| 20260503205255 | 11 | 326 | 3.2 | 17.7 | 0.00 | 0.00 | 0.00 | 45 | 1008.6 |
| 20260503204759 | 11 | 174 | 4.8 | 19.3 | 0.00 | 0.00 | 0.00 | 43 | 1008.5 |
| 20260503204755 | 11 | 234 | 4.8 | 16.1 | 0.00 | 0.00 | 0.00 | 44 | 1008.5 |
| 20260503204253 | 11 | 76 | 4.8 | 19.3 | 0.00 | 0.00 | 0.00 | 42 | 1008.4 |
| 20260503203258 | 11 | 212 | 4.8 | 17.7 | 0.00 | 0.00 | 0.00 | 43 | 1008.4 |
| 20260503203253 | 11 | 187 | 6.4 | 17.7 | 0.00 | 0.00 | 0.00 | 43 | 1008.4 |
| 20260503202918 | 11 | 199 | 4.8 | 17.7 | 0.00 | 0.00 | 0.00 | 42 | 1008.3 |
| 20260503202357 | 11 | 225 | 4.8 | 17.7 | 0.00 | 0.00 | 0.00 | 44 | 1008.3 |
| 20260503201254 | 11 | 268 | 3.2 | 22.5 | 0.00 | 0.00 | 0.00 | 46 | 1008.3 |
| 20260503200750 | 11 | 345 | 4.8 | 22.5 | 0.00 | 0.00 | 0.00 | 43 | 1008.4 |
| 20260503200251 | 11 | 259 | 4.8 | 17.7 | 0.00 | 0.00 | 0.00 | 43 | 1008.4 |
| 20260503195752 | 11 | 209 | 3.2 | 11.3 | 0.00 | 0.03 | 0.00 | 43 | 1008.2 |
| 20260503195251 | 12 | 70 | 4.8 | 22.5 | 0.00 | 0.03 | 0.00 | 43 | 1008.4 |
| 20260503194752 | 11 | 225 | 4.8 | 22.5 | 0.00 | 0.03 | 0.00 | 45 | 1008.2 |
| 20260503194252 | 11 | 176 | 4.8 | 22.5 | 0.00 | 0.03 | 0.00 | 44 | 1008.2 |
| 20260503193751 | 11 | 203 | 4.8 | 22.5 | 0.00 | 0.03 | 0.00 | 44 | 1008.2 |
| 20260503193253 | 11 | 188 | 4.8 | 22.5 | 0.00 | 0.03 | 0.00 | 42 | 1008.2 |